Hugo, OK

9:50 PM CDT on August 24, 2016 (GMT -0500)
Stamper Municipal

Weather History for KHHW - October, 2012

Change the Weather History Date:

Sunday, October 28, 2012

  Actual Average Record
Temperature  
Mean Temperature 47 °F -  
Max Temperature 61 °F 71 °F 75 °F (2013)
Min Temperature 33 °F 47 °F 56 °F (2015)
Degree Days  
Heating Degree Days 18    
Moisture  
Dew Point 27 °F    
Average Humidity 53    
Maximum Humidity 88    
Minimum Humidity 20    
Precipitation  
Precipitation 0.00 in - - ()
Sea Level Pressure  
Sea Level Pressure 30.23 in    
Wind  
Wind Speed 3 mph ()    
Max Wind Speed 10 mph    
Max Gust Speed 17 mph    
Visibility 10.0 miles    
Events      
Averages and records for this station are not official NWS values.
T = Trace of Precipitation, MM = Missing Value Source: Averaged Metar Reports

Daily Weather History Graph

Daily Weather History Graph

Search for Another Location

Airport or City:

Trip Planner

Search our weather history database for the weather conditions in past years. The results will help you decide how hot, cold, wet, or windy it might be!

Date:

Astronomy

Oct. 28, 2012 Rise Set
Actual Time 7:38 AM CDT 6:32 PM CDT
Civil Twilight 7:12 AM CDT 6:58 PM CDT
Nautical Twilight 6:43 AM CDT 7:27 PM CDT
Astronomical Twilight 6:14 AM CDT 7:56 PM CDT
Moon 5:50 PM CDT (10/28) 6:33 AM CDT (10/28)
Length of Visible Light 11h 45m
Length of Day
10h 54m
Waxing Gibbous, 99% of the Moon is Illuminated
Oct 28
Waxing Gibbous
Oct 29
Full
Nov 6
Last Quarter
Nov 13
New
Nov 20
First Quarter

Hourly Weather History & Observations

Time (CDT) Temp. Windchill Dew Point Humidity Pressure Visibility Wind Dir Wind Speed Gust Speed Precip Events Conditions
12:15 AM 39.2 °F 37.0 °F 30.2 °F 70% 30.23 in 10.0 mi NNW 3.5 mph - N/A   Clear
12:55 AM 39.2 °F 35.9 °F 30.6 °F 71% 30.23 in 10.0 mi NNW 4.6 mph - N/A   Clear
1:15 AM 38.5 °F - 30.4 °F 73% 30.23 in 10.0 mi Calm Calm - N/A   Clear
1:35 AM 38.8 °F 36.5 °F 30.6 °F 72% 30.23 in 10.0 mi NNW 3.5 mph - N/A   Clear
1:55 AM 38.5 °F 36.1 °F 30.6 °F 73% 30.24 in 10.0 mi NNW 3.5 mph - N/A   Clear
2:15 AM 39.2 °F - 30.4 °F 71% 30.24 in 10.0 mi Calm Calm - N/A   Clear
2:35 AM 38.5 °F - 30.6 °F 73% 30.23 in 10.0 mi Calm Calm - N/A   Clear
2:55 AM 37.8 °F 35.3 °F 30.4 °F 75% 30.22 in 10.0 mi North 3.5 mph - N/A   Clear
3:15 AM 36.5 °F - 30.4 °F 78% 30.23 in 10.0 mi Calm Calm - N/A   Clear
3:35 AM 37.0 °F - 30.6 °F 77% 30.23 in 10.0 mi Calm Calm - N/A   Clear
3:55 AM 36.7 °F - 30.6 °F 78% 30.23 in 10.0 mi Calm Calm - N/A   Clear
4:15 AM 35.8 °F 31.9 °F 30.4 °F 81% 30.23 in 10.0 mi NNW 4.6 mph - N/A   Clear
4:35 AM 35.8 °F 31.9 °F 30.2 °F 80% 30.23 in 10.0 mi NNW 4.6 mph - N/A   Clear
4:55 AM 35.1 °F 30.1 °F 30.2 °F 82% 30.22 in 10.0 mi North 5.8 mph - N/A   Clear
5:15 AM 35.1 °F 32.2 °F 30.2 °F 82% 30.23 in 10.0 mi NNW 3.5 mph - N/A   Clear
5:35 AM 35.8 °F 33.0 °F 30.2 °F 80% 30.23 in 10.0 mi NW 3.5 mph - N/A   Clear
5:55 AM 35.4 °F 31.5 °F 30.2 °F 81% 30.23 in 10.0 mi NNW 4.6 mph - N/A   Clear
6:15 AM 35.6 °F - 30.4 °F 81% 30.23 in 10.0 mi Calm Calm - N/A   Clear
6:35 AM 34.3 °F 31.4 °F 30.0 °F 84% 30.24 in 10.0 mi NW 3.5 mph - N/A   Clear
6:55 AM 33.4 °F 29.1 °F 30.0 °F 87% 30.24 in 10.0 mi NW 4.6 mph - N/A   Clear
7:15 AM 34.3 °F 31.4 °F 30.0 °F 84% 30.24 in 10.0 mi NNW 3.5 mph - N/A   Clear
7:35 AM 33.8 °F 30.8 °F 30.0 °F 86% 30.25 in 10.0 mi NW 3.5 mph - N/A   Clear
7:55 AM 33.1 °F 28.7 °F 29.8 °F 88% 30.26 in 10.0 mi WNW 4.6 mph - N/A   Clear
8:15 AM 33.8 °F 30.8 °F 30.4 °F 87% 30.26 in 10.0 mi NW 3.5 mph - N/A   Clear
8:35 AM 35.4 °F 32.6 °F 30.9 °F 84% 30.26 in 10.0 mi NNW 3.5 mph - N/A   Clear
8:55 AM 37.6 °F 35.1 °F 32.0 °F 80% 30.27 in 10.0 mi NNW 3.5 mph - N/A   Clear
9:15 AM 39.9 °F 35.8 °F 33.3 °F 77% 30.27 in 10.0 mi NNW 5.8 mph - N/A   Clear
9:55 AM 45.5 °F 41.8 °F 33.6 °F 63% 30.28 in 10.0 mi North 6.9 mph - N/A   Clear
10:15 AM 47.8 °F - 34.0 °F 59% 30.29 in 10.0 mi NNW 3.5 mph - N/A   Clear
10:35 AM 49.6 °F - 33.4 °F 54% 30.29 in 10.0 mi NNW 3.5 mph - N/A   Clear
10:55 AM 51.1 °F - 31.3 °F 47% 30.28 in 10.0 mi North 5.8 mph - N/A   Clear
11:15 AM 51.6 °F - 29.8 °F 43% 30.28 in 10.0 mi North 4.6 mph - N/A   Clear
11:35 AM 52.0 °F - 29.1 °F 41% 30.28 in 10.0 mi NE 4.6 mph - N/A   Clear
11:55 AM 53.8 °F - 29.5 °F 39% 30.28 in 10.0 mi WNW 6.9 mph - N/A   Clear
12:15 PM 54.5 °F - 27.5 °F 35% 30.28 in 10.0 mi North 9.2 mph - N/A   Clear
12:35 PM 55.0 °F - 26.1 °F 33% 30.27 in 10.0 mi NNE 8.1 mph - N/A   Clear
12:55 PM 55.9 °F - 26.2 °F 32% 30.27 in 10.0 mi NNE 5.8 mph - N/A   Clear
1:15 PM 57.2 °F - 25.5 °F 30% 30.26 in 10.0 mi North 5.8 mph - N/A   Clear
1:35 PM 57.9 °F - 26.8 °F 30% 30.25 in 10.0 mi NNW 8.1 mph - N/A   Clear
1:55 PM 57.9 °F - 25.7 °F 29% 30.24 in 10.0 mi NNW 5.8 mph - N/A   Clear
2:15 PM 59.0 °F - 25.5 °F 28% 30.23 in 10.0 mi NNE 5.8 mph - N/A   Clear
2:35 PM 59.5 °F - 23.2 °F 25% 30.23 in 10.0 mi North 5.8 mph - N/A   Clear
2:55 PM 60.3 °F - 22.5 °F 23% 30.23 in 10.0 mi NNE 6.9 mph 17.3 mph N/A   Clear
3:15 PM 60.3 °F - 22.5 °F 23% 30.22 in 10.0 mi North 9.2 mph - N/A   Clear
3:35 PM 61.0 °F - 21.6 °F 22% 30.21 in 10.0 mi NNW 10.4 mph - N/A   Clear
3:55 PM 60.8 °F - 19.2 °F 20% 30.21 in 10.0 mi NNW 4.6 mph - N/A   Clear
4:15 PM 60.8 °F - 21.2 °F 22% 30.20 in 10.0 mi NNW 4.6 mph - N/A   Clear
4:35 PM 60.4 °F - 19.9 °F 21% 30.20 in 10.0 mi North 6.9 mph - N/A   Clear
4:55 PM 60.1 °F - 20.8 °F 22% 30.19 in 10.0 mi NNE 5.8 mph - N/A   Clear
5:15 PM 59.4 °F - 21.9 °F 24% 30.19 in 10.0 mi NE 4.6 mph - N/A   Clear
5:35 PM 59.0 °F - 22.3 °F 24% 30.19 in 10.0 mi NNE 8.1 mph - N/A   Clear
5:55 PM 58.1 °F - 23.2 °F 26% 30.20 in 10.0 mi NNE 4.6 mph - N/A   Clear
6:15 PM 56.7 °F - 23.7 °F 28% 30.19 in 10.0 mi Calm Calm - N/A   Clear
6:35 PM 54.5 °F - 24.6 °F 31% 30.19 in 10.0 mi Calm Calm - N/A   Clear
6:55 PM 54.0 °F - 23.9 °F 31% 30.20 in 10.0 mi NE 3.5 mph - N/A   Clear
7:15 PM 52.7 °F - 24.1 °F 33% 30.20 in 10.0 mi NNE 4.6 mph - N/A   Clear
7:35 PM 51.6 °F - 24.4 °F 35% 30.21 in 10.0 mi NNE 4.6 mph - N/A   Clear
7:55 PM 50.9 °F - 23.2 °F 34% 30.21 in 10.0 mi NNE 4.6 mph - N/A   Clear
8:35 PM 49.1 °F - 23.7 °F 37% 30.21 in 10.0 mi Calm Calm - N/A   Clear
8:55 PM 47.7 °F - 23.4 °F 38% 30.21 in 10.0 mi Calm Calm - N/A   Clear
9:15 PM 47.1 °F - 23.9 °F 40% 30.21 in 10.0 mi NE 3.5 mph - N/A   Clear
9:35 PM 46.2 °F - 24.8 °F 43% 30.22 in 10.0 mi Calm Calm - N/A   Clear
9:55 PM 43.2 °F 41.5 °F 26.8 °F 52% 30.23 in 10.0 mi NNW 3.5 mph - N/A   Clear
10:35 PM 44.1 °F - 25.7 °F 49% 30.23 in 10.0 mi Calm Calm - N/A   Clear
10:55 PM 43.9 °F - 25.7 °F 49% 30.24 in 10.0 mi Calm Calm - N/A   Clear
11:15 PM 43.7 °F 42.1 °F 25.5 °F 49% 30.24 in 10.0 mi North 3.5 mph - N/A   Clear
11:35 PM 43.5 °F 41.9 °F 25.5 °F 49% 30.24 in 10.0 mi North 3.5 mph - N/A   Clear
11:55 PM 41.9 °F 40.0 °F 26.4 °F 54% 30.24 in 10.0 mi North 3.5 mph - N/A   Clear